Location: Bermeries
(50.2863°N, 3.7551°E)
Time: 15:14:56
(UTC+00:00)

Cosmos 2322 Rocket - Pass Details

Date: 23 May 2024
Orbit: 832 x 850 km, 71.0° (Epoch: 18 June)

Event Time Altitude Azimuth Distance (km) Brightness Sun altitude
Rises 00:50:18 0° 332° (NNW) 3,400 6.1 -17.5°
Reaches altitude 10° 00:52:52 10° 339° (NNW) 2,465 5.4 -17.3°
Maximum altitude 00:58:16 44° 51° (NE) 1,161 3.3 -17.1°
Drops below altitude 10° 01:03:39 10° 123° (ESE) 2,463 4.5 -16.8°
Sets 01:06:13 0° 130° (SE) 3,398 5.2 -16.7°
